This is the latest recevied weather packets stored in our database for station/object KD7JB. If no packets are shown the sender has not sent any weather packets the latest 10 day(s).
| Time | Temp. | Humidity | Pressure | Rain* | Wind** | Luminosity | Snow |
|---|---|---|---|---|---|---|---|
| 1777644769 | 12.22° C | 42% | 1179.3 hPa | 0 mm | - | 109 W/m² | - |
| 1777644466 | 11.67° C | 44% | 1179.3 hPa | 0 mm | - | 90 W/m² | - |
| 1777644163 | 11.67° C | 44% | 1179.1 hPa | 0 mm | - | 71 W/m² | - |
| 1777643859 | 11.11° C | 45% | 1179.2 hPa | 0 mm | - | 67 W/m² | - |
| 1777643557 | 11.11° C | 44% | 1179.2 hPa | 0 mm | - | 61 W/m² | - |
| 1777643253 | 11.67° C | 44% | 1179.1 hPa | 0 mm | - | 37 W/m² | - |
| 1777642950 | 11.67° C | 43% | 1179 hPa | 0 mm | - | 41 W/m² | - |
| 1777642646 | 11.67° C | 43% | 1179 hPa | 0 mm | - | 36 W/m² | - |
| 1777642344 | 11.11° C | 43% | 1179.1 hPa | 0 mm | - | 37 W/m² | - |
| 1777642040 | 11.67° C | 43% | 1179 hPa | 0 mm | - | 31 W/m² | - |
| 1777641736 | 11.67° C | 42% | 1178.9 hPa | 0 mm | - | 26 W/m² | - |
| 1777641431 | 11.67° C | 42% | 1179 hPa | 0 mm | - | 24 W/m² | - |
| 1777641127 | 11.67° C | 42% | 1179 hPa | 0 mm | - | 20 W/m² | - |
| 1777640823 | 11.11° C | 42% | 1178.7 hPa | 0 mm | - | 17 W/m² | - |
| 1777640520 | 10.56° C | 43% | 1178.8 hPa | 0 mm | - | 14 W/m² | - |
| 1777640217 | 10.56° C | 43% | 1178.8 hPa | 0 mm | - | 10 W/m² | - |
| 1777639913 | 10.56° C | 43% | 1178.5 hPa | 0 mm | - | 7 W/m² | - |
| 1777639610 | 10.56° C | 43% | 1178.5 hPa | 0 mm | - | 4 W/m² | - |
| 1777639307 | 10.56° C | 42% | 1178.8 hPa | 0 mm | - | 3 W/m² | - |
| 1777639003 | 10.56° C | 43% | 1178.8 hPa | 0 mm | - | 2 W/m² | - |
| 1777638699 | 10.56° C | 43% | 1178.9 hPa | 0 mm | - | 1 W/m² | - |
| 1777638396 | 10.56° C | 43% | 1178.9 hPa | 0 mm | - | 0 W/m² | - |
| 1777638092 | 9.44° C | 45% | 1178.9 hPa | 0 mm | - | 0 W/m² | - |
| 1777637789 | 8.89° C | 47% | 1178.8 hPa | 0 mm | - | 0 W/m² | - |
| 1777637485 | 9.44° C | 46% | 1178.9 hPa | 0 mm | - | 0 W/m² | - |
* Rain latest hour (hover to see other rain measurements)
** Current wind speed in m/s (hover to see current wind gust speed)